Jackson Hawkins Field, MS

3:33 AM CDT on September 15, 2019 (GMT -0500)
Hawkins

Weather History for KHKS - July, 2019

Change the Weather History Date:

Saturday, July 27, 2019

  Actual Average (KJAN) Record (KJAN)
Temperature  
Mean Temperature 82 °F -  
Max Temperature 93 °F 92 °F 103 °F (1952)
Min Temperature 70 °F 72 °F 58 °F (1911)
Cooling Degree Days 17    
Month to date cooling degree days 479  
Year to date cooling degree days 1384  
Since 1 June cooling degree days 927  
Growing Degree Days 30 (Base 50)    
Moisture  
Dew Point 66 °F    
Average Humidity 66    
Maximum Humidity 90    
Minimum Humidity 41    
Precipitation  
Precipitation 0.00 in - - ()
Month to date precipitation 6.21  
Year to date precipitation 35.17  
Sea Level Pressure  
Sea Level Pressure 30.16 in    
Wind  
Wind Speed 3 mph (ESE)    
Max Wind Speed 13 mph    
Max Gust Speed 17 mph    
Visibility 10 miles    
Events      
Averages and records for this station are not official NWS values.
T = Trace of Precipitation, MM = Missing Value Source: NWS Daily Summary

Daily Weather History Graph

Daily Weather History Graph

Search for Another Location

Airport or City:

Astronomy

Jul. 27, 2019 Rise Set
Actual Time 6:12 AM CDT 8:02 PM CDT
Civil Twilight 5:45 AM CDT 8:29 PM CDT
Nautical Twilight 5:12 AM CDT 9:01 PM CDT
Astronomical Twilight 4:37 AM CDT 9:36 PM CDT
Moon 1:55 AM CDT (7/27) 3:54 PM CDT (7/27)
Length of Visible Light 14h 44m
Length of Day
13h 50m
Waning Crescent, 24% of the Moon is Illuminated
Jul 27
Waning Crescent
Jul 31
New
Aug 7
First Quarter
Aug 15
Full
Aug 23
Last Quarter

Hourly Weather History & Observations

Time (CDT) Temp. Heat Index Dew Point Humidity Pressure Visibility Wind Dir Wind Speed Gust Speed Precip Events Conditions
12:53 AM 71.1 °F - 66.0 °F 84% 30.15 in 10.0 mi Calm Calm - N/A   Scattered Clouds
1:53 AM 71.1 °F - 66.0 °F 84% 30.14 in 10.0 mi Calm Calm - N/A   Partly Cloudy
2:53 AM 71.1 °F - 66.0 °F 84% 30.14 in 10.0 mi Calm Calm - N/A   Mostly Cloudy
3:53 AM 71.1 °F - 66.0 °F 84% 30.15 in 10.0 mi Calm Calm - N/A   Mostly Cloudy
4:53 AM 72.0 °F - 66.9 °F 84% 30.16 in 10.0 mi Calm Calm - N/A   Mostly Cloudy
5:53 AM 70.0 °F - 66.9 °F 90% 30.17 in 9.0 mi Calm Calm - N/A   Overcast
6:53 AM 72.0 °F - 68.0 °F 87% 30.19 in 9.0 mi Calm Calm - N/A   Overcast
7:53 AM 75.9 °F - 69.1 °F 79% 30.20 in 10.0 mi Calm Calm - N/A   Clear
8:53 AM 81.0 °F 84.9 °F 71.1 °F 72% 30.22 in 10.0 mi ESE 3.5 mph - N/A   Clear
9:53 AM 84.9 °F 88.2 °F 68.0 °F 57% 30.22 in 10.0 mi ESE 5.8 mph - N/A   Clear
10:53 AM 87.1 °F 90.6 °F 68.0 °F 53% 30.22 in 10.0 mi Variable 3.5 mph - N/A   Clear
11:53 AM 89.1 °F 92.1 °F 66.9 °F 48% 30.21 in 10.0 mi ESE 8.1 mph - N/A   Clear
12:53 PM 89.1 °F 91.3 °F 66.0 °F 46% 30.19 in 10.0 mi South 6.9 mph - N/A   Partly Cloudy
1:53 PM 89.1 °F 91.0 °F 64.9 °F 45% 30.17 in 10.0 mi ESE 8.1 mph - N/A   Scattered Clouds
2:53 PM 91.0 °F 92.6 °F 64.0 °F 41% 30.16 in 10.0 mi ESE 9.2 mph 17.3 mph N/A   Partly Cloudy
3:53 PM 91.9 °F 94.1 °F 64.9 °F 41% 30.14 in 10.0 mi South 8.1 mph - N/A   Partly Cloudy
4:53 PM 91.9 °F 93.3 °F 64.0 °F 39% 30.13 in 10.0 mi East 6.9 mph - N/A   Mostly Cloudy
5:53 PM 87.1 °F 88.9 °F 64.9 °F 48% 30.12 in 10.0 mi East 4.6 mph - N/A   Clear
6:53 PM 87.1 °F 88.3 °F 64.0 °F 46% 30.13 in 10.0 mi ESE 5.8 mph - N/A   Clear
7:53 PM 84.0 °F 85.4 °F 64.0 °F 51% 30.13 in 10.0 mi Calm Calm - N/A   Clear
8:53 PM 79.0 °F - 66.0 °F 64% 30.13 in 10.0 mi Calm Calm - N/A   Clear
9:53 PM 75.9 °F - 66.9 °F 74% 30.14 in 10.0 mi East 4.6 mph - N/A   Clear